Home   Weather   49°36'N, 9°28'E   Past weeks
Flag for Germany

Past Weather in 49°36'N, 9°28'E, Germany — Yesterday and Last 2 Weeks

Now
57 °F

Cool.


Feels Like: 57 °F
Forecast: 67 / 52 °F
Wind: No wind

Location: Niederstetten

Current Time: May 24, 2019 at 11:10:53 pm

Latest Report: May 24, 2019 at 10:20 pm


Visibility: N/A

Pressure: 29.95 "Hg

Humidity: 77%

Dew Point: 50 °F

Location of 49°36'N, 9°28'ELocation

Past Weather in 49°36'N, 9°28'E — Graph

°F

49°36'N, 9°28'E Temperature Yesterday

Maximum temperature yesterday: 66 °F (at 4:20 pm)
Minimum temperature yesterday: 43 °F (at 3:20 am)
Average temperature yesterday: 55 °F

High & Low Weather Summary for the Past Weeks

 TemperatureHumidityPressure
High70 °F (May 19, 3:20 pm)100% (May 10, 4:20 am)30.54 "Hg (May 10, 4:20 am)
Low36 °F (May 14, 6:20 am)31% (May 13, 5:00 pm)29.59 "Hg (May 19, 5:20 pm)
Average52 °F75%29.97 "Hg
* Reported May 9 9:20 pm — May 24 9:20 pm, 49°36'N, 9°28'E. Weather by CustomWeather, © 2019

Note: Actual official high and low records may vary slightly from our data, if they occured in-between our weather recording intervals... More about our weather records

Advertising

49°36'N, 9°28'E Weather History for the Previous 24 Hours

Scroll right to see more
 ConditionsComfort  
Time TempWeatherWind HumidityBarometerVisibility
9:20 pm
Fri, May 24
63 °FMild.No wind56%29.95 "HgN/A
8:20 pm64 °FMild.1 mph49%29.95 "HgN/A
7:20 pm66 °FPartly sunny.1 mph56%29.95 "HgN/A
6:20 pm68 °FPartly sunny.5 mph49%29.95 "HgN/A
5:20 pm68 °FPartly sunny.7 mph43%29.98 "HgN/A
4:20 pm68 °FPartly sunny.5 mph46%29.98 "HgN/A
3:20 pm66 °FPartly sunny.No wind46%29.98 "HgN/A
2:20 pm66 °FPartly sunny.No wind49%29.98 "HgN/A
1:20 pm66 °FBroken clouds.2 mph43%29.98 "HgN/A
12:20 pm66 °FPartly sunny.5 mph46%30.01 "HgN/A
11:20 am66 °FPartly sunny.3 mph43%30.01 "HgN/A
10:20 am64 °FPartly sunny.3 mph49%30.01 "HgN/A
9:20 am63 °FBroken clouds.2 mph52%30.01 "HgN/A
8:20 am59 °FPartly sunny.2 mph68%30.01 "HgN/A
7:20 am54 °FScattered clouds.2 mph77%30.01 "HgN/A
6:20 am48 °FScattered clouds.5 mph82%30.01 "HgN/A
5:20 am48 °FCool.5 mph82%30.01 "HgN/A
4:20 am48 °FCool.6 mph82%30.01 "HgN/A
3:20 am46 °FCool.6 mph87%30.01 "HgN/A
2:20 am48 °FCool.3 mph82%30.04 "HgN/A
1:20 am50 °FCool.3 mph76%30.04 "HgN/A
12:20 am50 °FCool.No wind82%30.04 "HgN/A
11:20 pm
Thu, May 23
52 °FCool.5 mph77%30.04 "HgN/A
Weather by CustomWeather, © 2019

See weather overview